NORTHERN QUEENS  -  Heat Advisory Heat Advisory     Air Quality Alert Air Quality Alert        SOUTHERN QUEENS  -  Heat Advisory Heat Advisory     Air Quality Alert Air Quality Alert      

Active alerts

Northern Queens
  Details for Northern Queens Heat Advisory  +1 additional alert
Southern Queens
  Details for Southern Queens Heat Advisory  +1 additional alert


WXM80 ListenWXM80 Stop

You find our weather info also at:

UK Metoffice

WeatherCloud

Weather Underground

Northeastern Weather Network

AWEKAS

Citizen Weather Observer Program (CWOP)

HAMweather, WeatherForYou, PWS Weather


Weather Underground History page Text

Daily Summary for August 16, 2016 Units:  English    Metric   Both
« Previous Day
Next Day »
Daily Weekly Monthly Yearly Custom
  High: Low: Average:
Temperature: 92.0 °F 74.7 °F 82.3 °F
Dew Point: 79.7 °F 71.9 °F 75.3 °F
Humidity: 97 % 54 % 81 %
Wind Speed: 6.7 mph 0.0 mph 1.7 mph
Wind Gust: 15.0 mph - -
Wind:- - South
Pressure: 30.16 in 29.95 in -
Precipitation: 0.00 in    
Historical Graphs
 
 
Tabular Data for August 16, 2016
Time Temperature Dew Point Pressure Wind Wind Speed Wind Gust Humidity Rainfall Rate (Hourly)
00:01 78.4 °F 73.5 °F 30.16 in SW 0.2 mph 1.0 mph 85 % 0.00 in
00:06 78.4 °F 73.5 °F 30.16 in Calm   4.0 mph 85 % 0.00 in
00:11 78.4 °F 73.5 °F 30.16 in Calm   2.0 mph 85 % 0.00 in
00:16 78.3 °F 73.4 °F 30.15 in Calm     85 % 0.00 in
00:21 78.3 °F 73.4 °F 30.15 in Calm     85 % 0.00 in
00:26 78.2 °F 73.3 °F 30.15 in Calm     85 % 0.00 in
00:31 78.1 °F 73.2 °F 30.15 in Calm     85 % 0.00 in
00:36 78.1 °F 72.9 °F 30.14 in Calm     84 % 0.00 in
00:41 78.0 °F 73.1 °F 30.14 in Calm     85 % 0.00 in
00:46 77.9 °F 73.0 °F 30.14 in Calm     85 % 0.00 in
00:51 77.8 °F 72.9 °F 30.14 in Calm     85 % 0.00 in
00:56 77.7 °F 72.8 °F 30.14 in Calm     85 % 0.00 in
01:02 77.6 °F 72.7 °F 30.14 in SSW 0.1 mph 1.0 mph 85 % 0.00 in
01:07 77.5 °F 73.0 °F 30.15 in Calm   2.3 mph 86 % 0.00 in
01:12 77.4 °F 72.9 °F 30.14 in Calm     86 % 0.00 in
01:17 77.3 °F 72.8 °F 30.14 in Calm     86 % 0.00 in
01:22 77.2 °F 72.7 °F 30.14 in Calm     86 % 0.00 in
01:27 77.1 °F 72.6 °F 30.14 in Calm     86 % 0.00 in
01:32 77.0 °F 72.5 °F 30.15 in NE 0.5 mph 2.3 mph 86 % 0.00 in
01:37 76.9 °F 72.7 °F 30.15 in Calm     87 % 0.00 in
01:42 76.8 °F 72.6 °F 30.15 in Calm     87 % 0.00 in
01:47 76.8 °F 72.6 °F 30.15 in Calm     87 % 0.00 in
01:53 76.7 °F 72.5 °F 30.15 in Calm     87 % 0.00 in
01:58 76.7 °F 72.9 °F 30.15 in Calm     88 % 0.00 in
02:03 76.6 °F 72.4 °F 30.14 in Calm     87 % 0.00 in
02:08 76.6 °F 72.8 °F 30.14 in Calm     88 % 0.00 in
02:13 76.5 °F 72.7 °F 30.14 in Calm     88 % 0.00 in
02:18 76.4 °F 72.6 °F 30.14 in Calm     88 % 0.00 in
02:23 76.4 °F 72.6 °F 30.14 in Calm     88 % 0.00 in
02:28 76.3 °F 72.5 °F 30.15 in Calm     88 % 0.00 in
02:33 76.2 °F 72.4 °F 30.14 in Calm     88 % 0.00 in
02:38 76.2 °F 72.7 °F 30.15 in NE 0.4 mph 1.2 mph 89 % 0.00 in
02:44 76.1 °F 72.6 °F 30.15 in Calm   1.2 mph 89 % 0.00 in
02:49 76.0 °F 72.5 °F 30.15 in Calm     89 % 0.00 in
02:54 76.0 °F 72.5 °F 30.15 in Calm     89 % 0.00 in
02:59 75.9 °F 72.4 °F 30.15 in Calm     89 % 0.00 in
03:04 75.9 °F 72.8 °F 30.15 in Calm     90 % 0.00 in
03:09 75.9 °F 72.8 °F 30.15 in Calm     90 % 0.00 in
03:14 75.8 °F 72.7 °F 30.15 in Calm     90 % 0.00 in
03:19 75.8 °F 72.7 °F 30.15 in Calm     90 % 0.00 in
03:24 75.8 °F 72.7 °F 30.15 in Calm     90 % 0.00 in
03:29 75.7 °F 72.6 °F 30.15 in Calm     90 % 0.00 in
03:35 75.7 °F 72.9 °F 30.15 in Calm     91 % 0.00 in
03:40 75.6 °F 72.8 °F 30.14 in Calm     91 % 0.00 in
03:45 75.6 °F 72.8 °F 30.14 in Calm     91 % 0.00 in
03:50 75.5 °F 72.7 °F 30.14 in Calm     91 % 0.00 in
03:55 75.5 °F 72.7 °F 30.14 in Calm     91 % 0.00 in
04:00 75.5 °F 72.7 °F 30.14 in Calm     91 % 0.00 in
04:05 75.4 °F 72.6 °F 30.14 in Calm     91 % 0.00 in
04:10 75.4 °F 72.6 °F 30.14 in Calm     91 % 0.00 in
04:15 75.3 °F 72.5 °F 30.14 in Calm     91 % 0.00 in
04:20 75.2 °F 72.4 °F 30.14 in Calm     91 % 0.00 in
04:31 75.1 °F 72.6 °F 30.15 in Calm     92 % 0.00 in
04:41 75.0 °F 72.5 °F 30.15 in Calm     92 % 0.00 in
04:46 74.9 °F 72.4 °F 30.14 in Calm     92 % 0.00 in
04:51 74.9 °F 72.4 °F 30.15 in Calm     92 % 0.00 in
04:56 74.8 °F 72.3 °F 30.15 in Calm     92 % 0.00 in
05:01 74.8 °F 72.3 °F 30.15 in Calm     92 % 0.00 in
05:06 74.8 °F 72.3 °F 30.14 in Calm     92 % 0.00 in
05:11 74.8 °F 72.3 °F 30.14 in Calm     92 % 0.00 in
05:16 74.8 °F 72.6 °F 30.14 in Calm     93 % 0.00 in
05:21 74.7 °F 72.2 °F 30.14 in Calm     92 % 0.00 in
05:26 74.7 °F 72.5 °F 30.14 in Calm   1.0 mph 93 % 0.00 in
05:31 74.7 °F 72.5 °F 30.14 in Calm   1.0 mph 93 % 0.00 in
05:36 74.7 °F 72.5 °F 30.14 in Calm     93 % 0.00 in
05:41 74.8 °F 72.6 °F 30.14 in Calm     93 % 0.00 in
05:46 74.7 °F 72.5 °F 30.14 in Calm   1.0 mph 93 % 0.00 in
05:51 74.7 °F 72.5 °F 30.14 in Calm     93 % 0.00 in
05:56 74.8 °F 73.0 °F 30.14 in Calm   1.0 mph 94 % 0.00 in
06:01 74.8 °F 73.0 °F 30.14 in Calm     94 % 0.00 in
06:06 74.7 °F 72.9 °F 30.14 in Calm     94 % 0.00 in
06:11 74.7 °F 72.9 °F 30.15 in Calm     94 % 0.00 in
06:16 74.7 °F 72.9 °F 30.15 in Calm     94 % 0.00 in
06:21 74.7 °F 72.9 °F 30.15 in Calm     94 % 0.00 in
06:26 74.7 °F 72.9 °F 30.15 in Calm   1.0 mph 94 % 0.00 in
06:31 74.7 °F 72.9 °F 30.15 in Calm     94 % 0.00 in
06:36 74.7 °F 72.9 °F 30.15 in Calm     94 % 0.00 in
06:41 74.7 °F 72.9 °F 30.15 in Calm     94 % 0.00 in
06:46 74.7 °F 72.9 °F 30.15 in Calm     94 % 0.00 in
06:51 74.8 °F 73.0 °F 30.15 in Calm     94 % 0.00 in
06:56 74.9 °F 73.4 °F 30.15 in Calm     95 % 0.00 in
07:01 74.9 °F 73.4 °F 30.15 in Calm     95 % 0.00 in
07:06 75.2 °F 73.7 °F 30.15 in Calm     95 % 0.00 in
07:11 75.3 °F 73.8 °F 30.15 in Calm     95 % 0.00 in
07:16 75.6 °F 74.4 °F 30.14 in Calm     96 % 0.00 in
07:21 75.8 °F 74.6 °F 30.14 in Calm     96 % 0.00 in
07:26 76.1 °F 74.9 °F 30.14 in Calm     96 % 0.00 in
07:31 76.2 °F 75.0 °F 30.14 in Calm     96 % 0.00 in
07:36 76.3 °F 75.1 °F 30.14 in Calm     96 % 0.00 in
07:41 76.6 °F 75.7 °F 30.14 in ENE 2.1 mph 3.5 mph 97 % 0.00 in
07:46 76.9 °F 76.0 °F 30.14 in Calm   1.2 mph 97 % 0.00 in
07:52 77.2 °F 76.0 °F 30.14 in ENE 0.3 mph 2.3 mph 96 % 0.00 in
07:57 77.5 °F 76.3 °F 30.14 in ESE 2.3 mph 3.5 mph 96 % 0.00 in
08:02 77.8 °F 76.6 °F 30.14 in SSE 2.7 mph 3.5 mph 96 % 0.00 in
08:07 78.2 °F 76.3 °F 30.14 in Calm   1.2 mph 94 % 0.00 in
08:12 78.7 °F 75.8 °F 30.13 in SSE 2.2 mph 4.6 mph 91 % 0.00 in
08:17 79.0 °F 76.1 °F 30.14 in Calm   1.2 mph 91 % 0.00 in
08:22 79.3 °F 76.4 °F 30.14 in Calm     91 % 0.00 in
08:27 79.4 °F 76.2 °F 30.15 in Calm     90 % 0.00 in
08:32 79.6 °F 76.1 °F 30.15 in Calm   1.2 mph 89 % 0.00 in
08:37 79.8 °F 76.3 °F 30.15 in SE 1.3 mph 3.0 mph 89 % 0.00 in
08:42 80.2 °F 76.3 °F 30.15 in SE 0.1 mph 1.2 mph 88 % 0.00 in
08:48 80.5 °F 76.6 °F 30.15 in SE 0.6 mph   88 % 0.00 in
08:53 80.7 °F 76.5 °F 30.15 in SE 1.3 mph 3.5 mph 87 % 0.00 in
08:58 80.9 °F 77.0 °F 30.15 in Calm   1.2 mph 88 % 0.00 in
09:03 81.1 °F 76.5 °F 30.15 in SE 0.7 mph 2.3 mph 86 % 0.00 in
09:08 81.4 °F 77.2 °F 30.15 in SSE 2.0 mph 4.6 mph 87 % 0.00 in
09:13 81.6 °F 77.0 °F 30.15 in SSE 0.2 mph 2.3 mph 86 % 0.00 in
09:18 81.9 °F 77.6 °F 30.15 in Calm     87 % 0.00 in
09:23 82.2 °F 77.2 °F 30.15 in SSE 0.4 mph 2.0 mph 85 % 0.00 in
09:28 82.5 °F 77.9 °F 30.15 in SSE 0.3 mph 1.2 mph 86 % 0.00 in
09:33 82.7 °F 77.4 °F 30.15 in Calm     84 % 0.00 in
09:39 83.0 °F 78.0 °F 30.15 in West 1.2 mph 1.2 mph 85 % 0.00 in
09:44 83.3 °F 78.3 °F 30.15 in Calm   1.2 mph 85 % 0.00 in
09:49 83.6 °F 78.2 °F 30.15 in North 0.2 mph 1.2 mph 84 % 0.00 in
09:54 84.0 °F 78.6 °F 30.15 in SE 0.7 mph 2.3 mph 84 % 0.00 in
09:59 84.7 °F 79.7 °F 30.14 in SE 0.2 mph 1.2 mph 85 % 0.00 in
10:04 85.4 °F 78.1 °F 30.14 in SSE 0.9 mph 3.5 mph 79 % 0.00 in
10:09 86.2 °F 78.9 °F 30.15 in ESE 0.3 mph 1.2 mph 79 % 0.00 in
10:14 86.4 °F 79.1 °F 30.15 in East 0.1 mph 1.2 mph 79 % 0.00 in
10:24 86.0 °F 78.7 °F 30.14 in North 1.9 mph 4.0 mph 79 % 0.00 in
10:30 86.0 °F 78.3 °F 30.14 in Calm     78 % 0.00 in
10:35 86.2 °F 78.5 °F 30.14 in SW 1.1 mph 5.8 mph 78 % 0.00 in
10:40 86.4 °F 78.7 °F 30.14 in Calm   1.2 mph 78 % 0.00 in
10:45 86.6 °F 79.3 °F 30.14 in Calm   1.2 mph 79 % 0.00 in
10:50 86.7 °F 77.0 °F 30.14 in SW 1.7 mph 2.3 mph 73 % 0.00 in
10:55 87.0 °F 76.9 °F 30.13 in SW 3.4 mph 6.0 mph 72 % 0.00 in
11:00 87.7 °F 78.4 °F 30.14 in SSW 5.1 mph 6.9 mph 74 % 0.00 in
11:05 88.1 °F 77.1 °F 30.13 in South 1.0 mph 4.0 mph 70 % 0.00 in
11:10 88.7 °F 76.3 °F 30.12 in SSW 2.4 mph 4.6 mph 67 % 0.00 in
11:15 89.5 °F 76.2 °F 30.13 in SSW 5.3 mph 7.0 mph 65 % 0.00 in
11:21 90.0 °F 75.3 °F 30.12 in SSW 2.0 mph 5.0 mph 62 % 0.00 in
11:26 90.5 °F 74.7 °F 30.13 in SSE 2.4 mph 6.9 mph 60 % 0.00 in
11:31 90.8 °F 75.5 °F 30.13 in SSW 2.0 mph 5.0 mph 61 % 0.00 in
11:36 91.1 °F 75.2 °F 30.12 in SSW 2.0 mph 5.0 mph 60 % 0.00 in
11:41 91.5 °F 74.6 °F 30.12 in South 1.2 mph 3.5 mph 58 % 0.00 in
11:46 91.4 °F 75.6 °F 30.12 in SSW 3.0 mph 12.0 mph 60 % 0.00 in
11:51 91.6 °F 75.2 °F 30.12 in SW 2.0 mph 8.0 mph 59 % 0.00 in
11:56 91.7 °F 75.3 °F 30.12 in WSW 1.3 mph 5.8 mph 59 % 0.00 in
12:01 92.0 °F 76.1 °F 30.12 in SSW 3.2 mph 5.8 mph 60 % 0.00 in
12:06 92.0 °F 74.6 °F 30.12 in SE 3.2 mph 6.9 mph 57 % 0.00 in
12:11 92.0 °F 75.1 °F 30.11 in SE 1.8 mph 9.2 mph 58 % 0.00 in
12:16 92.0 °F 75.1 °F 30.12 in SSW 2.6 mph 5.8 mph 58 % 0.00 in
12:21 92.0 °F 75.1 °F 30.11 in South 2.3 mph 3.5 mph 58 % 0.00 in
12:26 91.4 °F 74.0 °F 30.11 in SSE 1.6 mph 10.4 mph 57 % 0.00 in
12:31 91.2 °F 74.9 °F 30.11 in SW 3.3 mph 4.6 mph 59 % 0.00 in
12:36 91.3 °F 74.4 °F 30.11 in SSW 6.7 mph 10.4 mph 58 % 0.00 in
12:41 91.2 °F 74.9 °F 30.11 in South 1.5 mph 4.6 mph 59 % 0.00 in
12:47 91.4 °F 75.1 °F 30.11 in SSW 0.9 mph 3.5 mph 59 % 0.00 in
12:52 91.7 °F 75.3 °F 30.11 in West 2.1 mph 6.9 mph 59 % 0.00 in
12:57 91.7 °F 75.3 °F 30.11 in SSE 6.7 mph 15.0 mph 59 % 0.00 in
13:02 91.1 °F 73.7 °F 30.11 in South 4.0 mph 6.9 mph 57 % 0.00 in
13:07 90.4 °F 73.6 °F 30.11 in SSE 3.8 mph 6.0 mph 58 % 0.00 in
13:12 89.9 °F 73.7 °F 30.11 in SSE 0.3 mph 3.5 mph 59 % 0.00 in
13:17 89.7 °F 74.9 °F 30.11 in WSW 1.6 mph 3.5 mph 62 % 0.00 in
13:22 89.7 °F 74.0 °F 30.10 in SW 1.3 mph 6.9 mph 60 % 0.00 in
13:27 89.9 °F 74.6 °F 30.10 in SW 4.3 mph 6.9 mph 61 % 0.00 in
13:32 90.3 °F 76.0 °F 30.10 in SSW 3.5 mph 12.7 mph 63 % 0.00 in
13:38 90.7 °F 74.4 °F 30.10 in SSW 5.7 mph 8.1 mph 59 % 0.00 in
13:43 91.2 °F 74.9 °F 30.10 in SW 6.4 mph 9.0 mph 59 % 0.00 in
13:48 91.5 °F 73.1 °F 30.10 in SSW 3.1 mph 11.5 mph 55 % 0.00 in
13:53 91.9 °F 74.0 °F 30.09 in SSW 4.9 mph 9.2 mph 56 % 0.00 in
13:58 91.7 °F 72.7 °F 30.10 in ESE 1.6 mph 3.5 mph 54 % 0.00 in
14:03 91.1 °F 73.2 °F 30.10 in SSW 1.5 mph 3.5 mph 56 % 0.00 in
14:08 90.5 °F 72.7 °F 30.09 in South 2.6 mph 5.0 mph 56 % 0.00 in
14:13 90.0 °F 73.7 °F 30.09 in South 5.1 mph 6.9 mph 59 % 0.00 in
14:18 89.3 °F 73.1 °F 30.09 in SSW 4.7 mph 10.4 mph 59 % 0.00 in
14:23 89.0 °F 72.3 °F 30.09 in SSW 3.4 mph 6.0 mph 58 % 0.00 in
14:29 88.6 °F 71.9 °F 30.09 in SE 2.9 mph 9.2 mph 58 % 0.00 in
14:34 88.5 °F 72.8 °F 30.08 in SSW 4.0 mph 6.9 mph 60 % 0.00 in
14:39 88.5 °F 72.8 °F 30.08 in SW 2.7 mph 11.5 mph 60 % 0.00 in
14:44 88.4 °F 72.7 °F 30.08 in South 4.5 mph 8.1 mph 60 % 0.00 in
14:49 88.6 °F 72.4 °F 30.07 in South 2.2 mph 4.0 mph 59 % 0.00 in
14:54 88.6 °F 73.4 °F 30.07 in SW 3.5 mph 5.8 mph 61 % 0.00 in
14:59 88.8 °F 74.6 °F 30.07 in SSE 5.1 mph 13.0 mph 63 % 0.00 in
15:09 89.0 °F 75.2 °F 30.06 in South 3.9 mph 12.0 mph 64 % 0.00 in
15:14 89.1 °F 75.3 °F 30.06 in SSE 4.2 mph 4.6 mph 64 % 0.00 in
15:20 89.2 °F 75.0 °F 30.05 in SSW 3.8 mph 6.0 mph 63 % 0.00 in
15:25 88.8 °F 74.6 °F 30.06 in SSW 1.9 mph 8.1 mph 63 % 0.00 in
15:30 88.7 °F 74.5 °F 30.05 in WSW 2.9 mph 11.5 mph 63 % 0.00 in
15:35 88.8 °F 75.0 °F 30.05 in South 4.9 mph 6.9 mph 64 % 0.00 in
15:40 88.6 °F 75.8 °F 30.05 in South 5.7 mph 10.4 mph 66 % 0.00 in
15:45 88.4 °F 74.7 °F 30.05 in South 5.5 mph 8.0 mph 64 % 0.00 in
15:50 88.0 °F 75.2 °F 30.05 in SSW 3.8 mph 5.8 mph 66 % 0.00 in
15:55 87.6 °F 75.3 °F 30.05 in South 2.8 mph 5.8 mph 67 % 0.00 in
16:00 87.0 °F 75.6 °F 30.05 in SSW 1.8 mph 11.5 mph 69 % 0.00 in
16:10 86.7 °F 76.2 °F 30.04 in SSE 1.3 mph 4.6 mph 71 % 0.00 in
16:15 86.7 °F 76.2 °F 30.04 in SE 5.1 mph 10.4 mph 71 % 0.00 in
16:21 86.7 °F 76.6 °F 30.04 in SSE 2.0 mph 7.0 mph 72 % 0.00 in
16:26 87.0 °F 76.9 °F 30.03 in South 5.0 mph 6.0 mph 72 % 0.00 in
16:36 87.4 °F 76.4 °F 30.03 in SSE 5.0 mph 13.0 mph 70 % 0.00 in
16:41 87.4 °F 75.5 °F 30.03 in South 2.0 mph 6.0 mph 68 % 0.00 in
16:46 87.2 °F 75.3 °F 30.03 in SSW 4.7 mph 11.5 mph 68 % 0.00 in
16:51 87.2 °F 74.9 °F 30.03 in SSW 2.0 mph 8.0 mph 67 % 0.00 in
17:01 87.5 °F 75.2 °F 30.04 in WSW 3.9 mph 11.5 mph 67 % 0.00 in
17:06 87.6 °F 75.7 °F 30.03 in SSW 3.7 mph 8.1 mph 68 % 0.00 in
17:11 87.7 °F 76.3 °F 30.03 in SSW 3.0 mph 5.8 mph 69 % 0.00 in
17:16 87.3 °F 75.9 °F 30.03 in SSW 3.0 mph 6.9 mph 69 % 0.00 in
17:21 87.0 °F 76.0 °F 30.03 in SSW 3.1 mph 6.9 mph 70 % 0.00 in
17:26 86.6 °F 76.1 °F 30.03 in SE 5.1 mph 15.0 mph 71 % 0.00 in
17:31 86.3 °F 76.6 °F 30.02 in South 4.5 mph 9.2 mph 73 % 0.00 in
17:36 86.1 °F 76.8 °F 30.02 in SSW 2.4 mph 4.6 mph 74 % 0.00 in
17:41 85.9 °F 77.1 °F 30.02 in South 4.6 mph 9.0 mph 75 % 0.00 in
17:47 86.0 °F 77.1 °F 30.02 in South 2.9 mph 9.2 mph 75 % 0.00 in
17:52 86.0 °F 77.5 °F 30.01 in South 3.5 mph 8.1 mph 76 % 0.00 in
17:57 85.9 °F 77.8 °F 30.01 in South 2.0 mph 4.6 mph 77 % 0.00 in
18:02 85.9 °F 77.8 °F 30.01 in SW 3.0 mph 4.6 mph 77 % 0.00 in
18:07 85.8 °F 77.8 °F 30.01 in South 5.2 mph 9.2 mph 77 % 0.00 in
18:12 85.4 °F 77.8 °F 30.01 in SSE 3.9 mph 9.0 mph 78 % 0.00 in
18:17 85.2 °F 77.6 °F 30.01 in South 1.8 mph 5.0 mph 78 % 0.00 in
18:22 85.1 °F 77.8 °F 30.01 in SSW 3.9 mph 8.1 mph 79 % 0.00 in
18:27 85.0 °F 77.8 °F 30.00 in SSW 2.9 mph 6.0 mph 79 % 0.00 in
18:32 84.9 °F 78.0 °F 30.00 in SW 6.6 mph 13.8 mph 80 % 0.00 in
18:37 84.7 °F 77.8 °F 30.00 in SSW 2.3 mph 11.5 mph 80 % 0.00 in
18:43 84.5 °F 77.6 °F 30.00 in South 1.9 mph 9.0 mph 80 % 0.00 in
18:48 84.2 °F 77.7 °F 30.00 in South 1.6 mph 4.0 mph 81 % 0.00 in
18:53 83.9 °F 77.8 °F 29.99 in South 2.2 mph 5.8 mph 82 % 0.00 in
18:58 83.7 °F 77.6 °F 29.99 in SSE 4.0 mph 8.1 mph 82 % 0.00 in
19:03 83.4 °F 77.7 °F 29.99 in SSW 3.6 mph 5.8 mph 83 % 0.00 in
19:08 83.3 °F 77.6 °F 29.98 in SE 2.2 mph 7.0 mph 83 % 0.00 in
19:13 83.1 °F 77.8 °F 29.98 in South 1.2 mph 4.6 mph 84 % 0.00 in
19:18 83.0 °F 77.7 °F 29.99 in SSE 2.0 mph 5.0 mph 84 % 0.00 in
19:23 82.9 °F 77.6 °F 29.99 in SSW 2.6 mph 6.9 mph 84 % 0.00 in
19:28 82.8 °F 77.5 °F 29.99 in SSW 1.0 mph 2.3 mph 84 % 0.00 in
19:34 82.7 °F 77.7 °F 29.99 in WSW 4.7 mph 6.9 mph 85 % 0.00 in
19:39 82.6 °F 77.6 °F 29.98 in South 1.5 mph 4.6 mph 85 % 0.00 in
19:44 82.6 °F 77.6 °F 29.99 in SW 2.6 mph 8.1 mph 85 % 0.00 in
19:49 82.5 °F 77.5 °F 29.98 in South 2.4 mph 5.8 mph 85 % 0.00 in
19:54 82.4 °F 77.8 °F 29.98 in SSW 3.0 mph 4.6 mph 86 % 0.00 in
19:59 82.4 °F 77.8 °F 29.98 in SW 2.4 mph 6.0 mph 86 % 0.00 in
20:04 82.3 °F 77.7 °F 29.97 in SSE 3.2 mph 8.1 mph 86 % 0.00 in
20:09 82.3 °F 77.7 °F 29.97 in SSE 3.1 mph 6.9 mph 86 % 0.00 in
20:14 82.2 °F 77.6 °F 29.97 in SSE 4.4 mph 13.0 mph 86 % 0.00 in
20:19 82.2 °F 77.6 °F 29.97 in SSE 3.0 mph 5.0 mph 86 % 0.00 in
20:25 82.2 °F 77.6 °F 29.97 in SSE 3.5 mph 6.0 mph 86 % 0.00 in
20:30 82.2 °F 77.6 °F 29.97 in South 3.7 mph 9.2 mph 86 % 0.00 in
20:35 82.2 °F 77.6 °F 29.97 in SSE 2.2 mph 6.0 mph 86 % 0.00 in
20:40 82.2 °F 77.6 °F 29.98 in SSE 3.0 mph 6.0 mph 86 % 0.00 in
20:45 82.3 °F 77.7 °F 29.97 in SSW 1.6 mph 4.6 mph 86 % 0.00 in
20:50 82.3 °F 77.3 °F 29.97 in SSW 2.5 mph 5.8 mph 85 % 0.00 in
20:55 82.3 °F 77.3 °F 29.97 in South 2.7 mph 7.0 mph 85 % 0.00 in
21:00 82.3 °F 77.3 °F 29.97 in South 1.1 mph 3.5 mph 85 % 0.00 in
21:05 82.3 °F 77.3 °F 29.96 in SW 3.2 mph 6.9 mph 85 % 0.00 in
21:10 82.3 °F 77.3 °F 29.97 in SSW 5.4 mph 8.1 mph 85 % 0.00 in
21:16 82.3 °F 77.3 °F 29.97 in SSW 5.0 mph 9.0 mph 85 % 0.00 in
21:21 82.3 °F 77.7 °F 29.97 in SSW 2.0 mph 8.0 mph 86 % 0.00 in
21:26 82.3 °F 77.7 °F 29.97 in SSW 3.0 mph 7.0 mph 86 % 0.00 in
21:31 82.3 °F 78.0 °F 29.96 in SSW 2.0 mph 5.0 mph 87 % 0.00 in
21:36 82.2 °F 77.9 °F 29.96 in Calm   5.0 mph 87 % 0.00 in
21:41 82.0 °F 77.8 °F 29.96 in SW 1.0 mph 4.0 mph 87 % 0.00 in
21:46 81.9 °F 77.6 °F 29.96 in South 1.0 mph 5.0 mph 87 % 0.00 in
21:51 81.8 °F 77.9 °F 29.96 in SSW 1.0 mph 7.0 mph 88 % 0.00 in
21:56 81.7 °F 77.8 °F 29.96 in SSW 2.0 mph 6.0 mph 88 % 0.00 in
22:01 81.6 °F 77.7 °F 29.96 in SE 2.5 mph 4.0 mph 88 % 0.00 in
22:06 81.6 °F 77.7 °F 29.96 in West 1.1 mph 4.6 mph 88 % 0.00 in
22:11 81.5 °F 77.6 °F 29.96 in SSW 2.8 mph 8.1 mph 88 % 0.00 in
22:16 81.5 °F 77.6 °F 29.96 in SW 2.7 mph 3.5 mph 88 % 0.00 in
22:21 81.5 °F 77.6 °F 29.96 in SSE 1.7 mph 3.5 mph 88 % 0.00 in
22:26 81.5 °F 77.6 °F 29.96 in SSW 2.5 mph 4.6 mph 88 % 0.00 in
22:31 81.5 °F 77.6 °F 29.96 in SSW 3.7 mph 5.8 mph 88 % 0.00 in
22:36 81.6 °F 77.7 °F 29.96 in ESE 3.8 mph 4.0 mph 88 % 0.00 in
22:41 81.6 °F 77.7 °F 29.97 in SSW 2.4 mph 4.6 mph 88 % 0.00 in
22:46 81.6 °F 77.7 °F 29.97 in SW 2.4 mph 5.0 mph 88 % 0.00 in
22:52 81.6 °F 77.7 °F 29.96 in SW 2.3 mph 5.8 mph 88 % 0.00 in
22:57 81.7 °F 77.8 °F 29.97 in SW 2.9 mph 5.8 mph 88 % 0.00 in
23:02 81.7 °F 77.5 °F 29.97 in SW 1.6 mph 4.0 mph 87 % 0.00 in
23:07 81.7 °F 77.5 °F 29.96 in SE 3.0 mph 5.0 mph 87 % 0.00 in
23:12 81.7 °F 77.5 °F 29.96 in SSW 2.4 mph 3.5 mph 87 % 0.00 in
23:17 81.7 °F 77.5 °F 29.96 in SSW 3.4 mph 5.8 mph 87 % 0.00 in
23:22 81.7 °F 77.5 °F 29.96 in SW 4.2 mph 9.2 mph 87 % 0.00 in
23:27 81.7 °F 77.5 °F 29.95 in SSW 5.2 mph 6.9 mph 87 % 0.00 in
23:32 81.8 °F 77.5 °F 29.95 in SSW 3.0 mph 13.0 mph 87 % 0.00 in
23:37 81.8 °F 77.2 °F 29.96 in South 3.9 mph 7.0 mph 86 % 0.00 in
23:43 81.8 °F 77.2 °F 29.95 in SSE 1.4 mph 3.5 mph 86 % 0.00 in
23:48 81.8 °F 77.2 °F 29.95 in South 0.6 mph 3.5 mph 86 % 0.00 in
23:53 81.8 °F 77.2 °F 29.96 in WNW 2.6 mph 6.0 mph 86 % 0.00 in
23:58 81.8 °F 77.2 °F 29.96 in South 1.8 mph 5.0 mph 86 % 0.00 in
Crab Meadow Weather
Compliments of Weather Underground - 3 mb

Script developed by  Jim McMurry - jmcmurry@mwt.net Adapted for the template by  Wim van der Kuil - Leuven-Template.eu

Weather Terms: Squall line - A line of thunderstorms or squalls which may extend over several hundred miles.